VY2CRA-4 Weather Reports


time (UTC)temp
F
wind
direction
speed
knots
gust
knots
rain 1hr
in
rain 24hr
in
rain mn
in
humidity
%
barometer
mb
20260505010629 67 270 0.0 0.0 0.00 0.00 0.00 24 1000.3
20260505004628 72 270 0.0 0.0 0.00 0.00 0.00 19 1000.0
20260505002627 78 270 0.0 0.0 0.00 0.00 0.00 11 999.7
20260505000626 78 270 0.0 0.0 0.00 0.00 0.00 11 999.5
20260504234625 72 270 0.0 0.0 0.00 0.00 0.00 21 999.0
20260504232624 64 270 0.0 0.0 0.00 0.00 0.00 31 998.8
20260504230624 62 270 0.0 0.0 0.00 0.00 0.00 32 998.4
20260504222622 64 270 0.0 0.0 0.00 0.00 0.00 28 998.1
20260504220621 65 270 0.0 0.0 0.00 0.00 0.00 27 998.0
20260504214621 66 270 0.0 0.0 0.00 0.00 0.00 27 997.8
20260504212619 67 270 0.0 0.0 0.00 0.00 0.00 26 997.7
20260504210618 68 270 0.0 0.0 0.00 0.00 0.00 25 997.7
20260504204617 68 270 0.0 0.0 0.00 0.00 0.00 25 997.3
20260504202618 67 270 0.0 0.0 0.00 0.00 0.00 25 997.0
20260504200615 66 270 0.0 0.0 0.00 0.00 0.00 27 997.1
20260504194614 65 270 0.0 0.0 0.00 0.00 0.00 28 996.7
20260504192615 65 270 0.0 0.0 0.00 0.00 0.00 29 996.6
20260504190614 64 270 0.0 0.0 0.00 0.00 0.00 31 996.5
20260504184611 64 270 0.0 0.0 0.00 0.00 0.00 32 996.4
20260504182612 63 270 0.0 0.0 0.00 0.00 0.00 32 996.4
20260504180610 63 270 0.0 0.0 0.00 0.00 0.00 34 996.5
20260504174610 63 270 0.0 0.0 0.00 0.00 0.00 36 996.6
20260504172608 63 270 0.0 0.0 0.00 0.00 0.00 37 996.2
20260504170608 63 270 0.0 0.0 0.00 0.00 0.00 37 996.1
20260504150601 62 270 0.0 0.0 0.00 0.00 0.00 43 994.9
20260504140558 59 270 0.0 0.0 0.00 0.00 0.00 47 994.1
20260504130557 57 270 0.0 0.0 0.00 0.00 0.00 49 993.0
20260504110550 51 270 0.0 0.0 0.00 0.00 0.00 66 990.0
20260504100549 45 270 0.0 0.0 0.00 0.00 0.00 73 988.1
20260504080542 43 270 0.0 0.0 0.00 0.00 0.00 71 984.0
20260504050533 46 270 0.0 0.0 0.00 0.00 0.00 68 978.1
20260504044532 46 270 0.0 0.0 0.00 0.00 0.00 67 977.8
20260504042531 46 270 0.0 0.0 0.00 0.00 0.00 67 977.4
20260504040531 46 270 0.0 0.0 0.00 0.00 0.00 67 977.0
20260504034529 46 270 0.0 0.0 0.00 0.00 0.00 67 976.8
20260504032529 46 270 0.0 0.0 0.00 0.00 0.00 67 977.1
20260504030528 46 270 0.0 0.0 0.00 0.00 0.00 67 977.5
20260504024527 46 270 0.0 0.0 0.00 0.00 0.00 67 977.8
20260504022526 47 270 0.0 0.0 0.00 0.00 0.00 66 978.0
20260504020527 47 270 0.0 0.0 0.00 0.00 0.00 66 978.5